User: anonymous   Login
Location: Martley
(52.2333°N, 2.3667°W)
Time: 09:22:43
(UTC+00:00)
Language:

Cosmos 2082 Rocket - Orbit

View from above orbital plane
View from above orbital plane
View from above satellite
View from above satellite

Ground track
Ground track

The orbit data is extracted from the following two-line orbital elements,

1 20625U 90046B   20055.59187681 -.00000284 +00000-0 -12303-3 0  9999
2 20625 070.9962 247.1905 0012393 049.0486 311.1706 14.14649115536512
Epoch (UTC): 24 February 2020 14:12:18
Eccentricity: 0.0012393
inclination: 70.9962°
perigee height: 834 km
apogee height: 852 km
right ascension of ascending node: 247.1905°
argument of perigee: 49.0486°
revolutions per day: 14.14649115
mean anomaly at epoch: 311.1706°
orbit number at epoch: 53651

The dashed part of the orbit path shows where the satellite is in the earth's shadow,  

DLR